Topeka, KS

7:59 PM CDT on August 16, 2017 (GMT -0500)
Billard Municipal

Weather History for KTOP - August, 2014

Change the Weather History Date:

Sunday, August 31, 2014

  Actual Average Record
Temperature  
Mean Temperature 83 °F 74 °F  
Max Temperature 97 °F 86 °F 107 °F (2000)
Min Temperature 68 °F 63 °F 47 °F (1967)
Degree Days  
Heating Degree Days 0 0  
Month to date heating degree days 0 0  
Since 1 June heating degree days 0 10  
Since 1 July heating degree days 0 2  
Cooling Degree Days 18 10  
Month to date cooling degree days 487 386  
Year to date cooling degree days 1410 1228  
Since 1 June cooling degree days 1193 1102  
Growing Degree Days 32 (Base 50)    
Moisture  
Dew Point 67 °F    
Average Humidity 63    
Maximum Humidity 93    
Minimum Humidity 33    
Precipitation  
Precipitation 0.94 in 0.13 in 3.88 in (1977)
Month to date precipitation 5.19 4.24  
Year to date precipitation 19.84 26.57  
Snow  
Snow 0.00 in 0.00 in T in (1974)
Month to date snowfall T 0.0  
Year to date snowfall 23.1 11.3  
Since 1 July snowfall T 0.0  
Snow Depth 0.00 in    
Sea Level Pressure  
Sea Level Pressure 29.80 in    
Wind  
Wind Speed 11 mph (South)    
Max Wind Speed 26 mph    
Max Gust Speed 37 mph    
Visibility 8 miles    
Events Fog , Rain , Thunderstorm    
T = Trace of Precipitation, MM = Missing Value Source: NWS Daily Summary

Daily Weather History Graph

Daily Weather History Graph

Search for Another Location

Airport or City:

Trip Planner

Search our weather history database for the weather conditions in past years. The results will help you decide how hot, cold, wet, or windy it might be!

Date:

Astronomy

Aug. 31, 2014 Rise Set
Actual Time 6:50 AM CDT 7:54 PM CDT
Civil Twilight 6:22 AM CDT 8:21 PM CDT
Nautical Twilight 5:50 AM CDT 8:54 PM CDT
Astronomical Twilight 5:16 AM CDT 9:28 PM CDT
Moon 12:34 PM CDT (8/31) 11:13 PM CDT (8/31)
Length of Visible Light 13h 58m
Length of Day
13h 04m
Waxing Crescent, 32% of the Moon is Illuminated
Aug 31
Waxing Crescent
Sep 2
First Quarter
Sep 8
Full
Sep 15
Last Quarter
Sep 24
New

Hourly Weather History & Observations

Time (CDT) Temp. Heat Index Dew Point Humidity Pressure Visibility Wind Dir Wind Speed Gust Speed Precip Events Conditions
12:53 AM 73.9 °F - 66.9 °F 79% 29.85 in 10.0 mi East 4.6 mph - N/A   Clear
1:53 AM 71.1 °F - 66.0 °F 84% 29.85 in 10.0 mi Calm Calm - N/A   Clear
2:53 AM 71.1 °F - 64.9 °F 81% 29.84 in 10.0 mi SE 3.5 mph - N/A   Clear
3:53 AM 70.0 °F - 66.0 °F 87% 29.83 in 10.0 mi Calm Calm - N/A   Clear
4:53 AM 70.0 °F - 64.9 °F 84% 29.83 in 10.0 mi ESE 4.6 mph - N/A   Clear
5:53 AM 72.0 °F - 66.9 °F 84% 29.84 in 10.0 mi South 3.5 mph - N/A   Clear
6:53 AM 73.0 °F - 68.0 °F 84% 29.84 in 10.0 mi South 5.8 mph - N/A   Clear
7:53 AM 75.0 °F - 69.1 °F 82% 29.86 in 10.0 mi South 6.9 mph - N/A   Clear
8:53 AM 77.0 °F - 70.0 °F 79% 29.87 in 10.0 mi South 6.9 mph - N/A   Clear
9:53 AM 82.0 °F 85.9 °F 70.0 °F 67% 29.86 in 10.0 mi South 6.9 mph - N/A   Clear
10:53 AM 84.9 °F 89.4 °F 70.0 °F 61% 29.83 in 10.0 mi South 11.5 mph - N/A   Clear
11:53 AM 88.0 °F 92.1 °F 69.1 °F 53% 29.82 in 10.0 mi South 15.0 mph - N/A   Mostly Cloudy
12:53 PM 93.0 °F 97.9 °F 69.1 °F 45% 29.78 in 10.0 mi South 16.1 mph 25.3 mph N/A   Clear
1:53 PM 93.9 °F 97.5 °F 66.9 °F 41% 29.76 in 10.0 mi South 20.7 mph 29.9 mph N/A   Clear
2:53 PM 95.0 °F 97.9 °F 66.0 °F 38% 29.73 in 10.0 mi South 18.4 mph 34.5 mph N/A   Clear
3:53 PM 96.1 °F 97.3 °F 63.0 °F 33% 29.71 in 10.0 mi South 23.0 mph 34.5 mph N/A   Clear
4:53 PM 96.1 °F 98.8 °F 64.9 °F 36% 29.68 in 10.0 mi South 24.2 mph 33.4 mph N/A   Clear
5:53 PM 95.0 °F 97.4 °F 64.9 °F 37% 29.66 in 10.0 mi South 17.3 mph 27.6 mph N/A   Clear
6:53 PM 91.9 °F 94.1 °F 64.9 °F 41% 29.63 in 10.0 mi SSE 16.1 mph 25.3 mph N/A   Clear
7:53 PM 90.0 °F 92.8 °F 66.9 °F 46% 29.64 in 10.0 mi SSE 19.6 mph 25.3 mph N/A   Clear
8:53 PM 89.6 °F 92.2 °F 66.2 °F 46% 29.73 in 10.0 mi SSW 9.2 mph 20.7 mph N/A   Scattered Clouds
9:20 PM 73.9 °F - 64.9 °F 73% 29.81 in 10.0 mi WNW 24.2 mph 38.0 mph 0.00 in Rain , Thunderstorm Light Thunderstorms and Rain
9:30 PM 71.1 °F - 66.9 °F 87% 29.81 in 8.0 mi WNW 16.1 mph 26.5 mph 0.01 in Rain , Thunderstorm Light Thunderstorms and Rain
9:42 PM 70.0 °F - 66.9 °F 90% 29.90 in 1.5 mi West 19.6 mph 31.1 mph 0.09 in Rain , Thunderstorm Heavy Thunderstorms and Rain
9:45 PM 69.1 °F - 68.0 °F 96% 29.89 in 0.8 mi WNW 21.9 mph 31.1 mph 0.26 in Rain , Thunderstorm Heavy Thunderstorms and Rain
9:48 PM 68.0 °F - 68.0 °F 100% 29.84 in 0.5 mi NW 16.1 mph 31.1 mph 0.37 in Fog , Rain , Thunderstorm Heavy Thunderstorms and Rain
9:51 PM 68.0 °F - 68.0 °F 100% 29.83 in 0.8 mi West 10.4 mph 31.1 mph 0.47 in Rain , Thunderstorm Heavy Thunderstorms and Rain
9:53 PM 68.0 °F - 68.0 °F 100% 29.81 in 0.8 mi NW 6.9 mph 31.1 mph 0.51 in Rain , Thunderstorm Heavy Thunderstorms and Rain
10:00 PM 68.0 °F - 68.0 °F 100% 29.82 in 1.8 mi Calm Calm - 0.06 in Rain , Thunderstorm Heavy Thunderstorms and Rain
10:10 PM 69.1 °F - 66.9 °F 93% 29.83 in 3.0 mi South 9.2 mph - 0.12 in Rain , Thunderstorm Thunderstorms and Rain
10:31 PM 69.8 °F - 68.0 °F 94% 29.82 in 9.0 mi SSE 17.3 mph - N/A Rain , Thunderstorm Light Rain
10:53 PM 69.1 °F - 68.0 °F 96% 29.78 in 9.0 mi SE 11.5 mph - 0.17 in Rain , Thunderstorm Light Rain
11:53 PM 68.0 °F - 66.9 °F 96% 29.84 in 6.0 mi ESE 6.9 mph - 0.08 in Rain , Thunderstorm Rain